ZL1UCH Weather Reports


time (UTC)temp
F
wind
direction
speed
knots
gust
knots
rain 1hr
in
rain 24hr
in
rain mn
in
humidity
%
barometer
mb
20260503204553 65 139 9.6 17.4 0.00 0.00 0.00 73 1032.3
20260503203050 65 133 5.2 13.9 0.00 0.00 0.00 71 1032.3
20260503201545 63 134 7.8 13.0 0.00 0.00 0.00 79 1032.3
20260503200045 63 135 8.7 20.0 0.00 0.00 0.00 77 1032.2
20260503194546 63 129 7.0 10.4 0.00 0.00 0.00 77 1032.2
20260503193102 64 128 6.1 13.9 0.00 0.00 0.00 75 1032.1
20260503191544 64 126 8.7 13.9 0.00 0.00 0.00 73 1031.9
20260503190053 64 153 7.8 15.6 0.00 0.00 0.00 72 1031.8
20260503184541 64 157 8.7 16.5 0.00 0.00 0.00 73 1031.8
20260503183056 64 85 10.4 15.6 0.00 0.00 0.00 71 1031.7
20260503181542 64 166 4.3 14.8 0.00 0.00 0.00 71 1031.7
20260503180051 64 41 6.1 19.1 0.00 0.00 0.00 72 1031.7
20260503174544 64 224 5.2 12.2 0.00 0.00 0.00 74 1031.5
20260503173105 63 115 8.7 18.2 0.00 0.00 0.00 77 1031.5
20260503171549 62 145 7.8 10.4 0.00 0.00 0.00 78 1031.4
20260503081546 63 135 7.8 12.2 0.00 0.00 0.00 77 1031.9
20260503071545 64 136 7.8 13.0 0.00 0.00 0.00 75 1031.7
20260503054543 64 127 13.9 17.4 0.00 0.00 0.00 74 1031.1
20260503053037 64 146 11.3 17.4 0.00 0.00 0.00 73 1030.9
20260503051537 65 125 12.2 19.1 0.00 0.00 0.00 75 1030.8
20260503050039 65 110 13.0 17.4 0.00 0.00 0.00 71 1030.8
20260503044536 65 135 8.7 18.2 0.00 0.00 0.00 73 1030.7
20260503043041 66 124 7.0 17.4 0.00 0.00 0.00 75 1030.7
20260503041541 66 124 7.0 12.2 0.00 0.00 0.00 74 1030.9
20260503040041 66 140 10.4 21.7 0.00 0.00 0.00 75 1030.7
20260503034536 66 115 11.3 19.1 0.00 0.00 0.00 76 1030.7
20260503033043 66 129 10.4 16.5 0.00 0.00 0.00 75 1030.7
20260503031543 67 162 6.1 12.2 0.00 0.00 0.00 75 1030.7
20260503030039 66 126 7.0 13.0 0.00 0.00 0.00 76 1030.7
20260503024539 66 108 10.4 19.1 0.00 0.00 0.00 77 1030.7
20260503023039 66 114 11.3 20.0 0.00 0.00 0.00 76 1030.8
20260503021549 66 136 12.2 18.2 0.00 0.00 0.00 75 1030.9
20260503020050 66 131 11.3 18.2 0.00 0.00 0.00 74 1031.0
20260503014606 66 115 13.0 17.4 0.00 0.00 0.00 75 1031.0
20260503013042 66 115 12.2 18.2 0.00 0.00 0.00 74 1031.2
20260503011545 66 143 6.1 16.5 0.00 0.00 0.00 75 1031.5
20260503010047 66 127 6.1 13.9 0.00 0.00 0.00 75 1031.7
20260503004555 66 141 7.8 17.4 0.00 0.00 0.00 76 1031.7
20260503003043 66 122 10.4 15.6 0.00 0.00 0.00 78 1031.6
20260503001539 66 120 7.0 13.9 0.00 0.00 0.00 81 1032.0
20260503000041 65 125 9.6 16.5 0.00 0.00 0.00 82 1032.2
20260502234542 65 138 9.6 13.9 0.00 0.00 0.00 82 1032.4
20260502233045 65 131 12.2 15.6 0.00 0.00 0.00 81 1032.6
20260502231542 65 128 9.6 13.9 0.00 0.00 0.00 83 1032.7
20260502230046 63 124 10.4 14.8 0.00 0.00 0.00 84 1032.8
20260502224540 63 121 6.1 10.4 0.00 0.00 0.00 87 1032.8
20260502223042 62 146 7.8 11.3 0.00 0.00 0.00 88 1032.8
20260502221544 61 123 7.0 11.3 0.00 0.00 0.00 88 1033.0
20260502220045 61 124 6.1 10.4 0.00 0.00 0.00 90 1033.0
20260502214540 60 143 7.8 10.4 0.00 0.00 0.00 91 1033.0
20260502213042 60 98 7.8 12.2 0.00 0.00 0.00 92 1033.1
20260502211553 60 128 7.8 11.3 0.00 0.00 0.00 92 1033.1
20260502210041 60 108 9.6 13.0 0.00 0.00 0.00 89 1033.0